User: anonymous   Login
Location: Saint-Usage
(47.1052°N, 5.2587°E)
Time: 15:59:52
(UTC+02:00)
Language:

ISS - Orbit

View from above orbital plane
View from above orbital plane
View from above satellite
View from above satellite

Ground track
Ground track

The orbit data is extracted from the following two-line orbital elements,

1 25544U 98067A   21300.37589350  .00002672  00000-0  57025-4 0  9996
2 25544  51.6442  49.0977 0003933 144.9661 288.9365 15.48799587309083
Epoch (UTC): 27 October 2021 09:01:17
Eccentricity: 0.0003933
inclination: 51.6442°
perigee height: 417 km
apogee height: 423 km
right ascension of ascending node: 49.0977°
argument of perigee: 144.9661°
revolutions per day: 15.48799587
mean anomaly at epoch: 288.9365°
orbit number at epoch: 30908

The dashed part of the orbit path shows where the satellite is in the earth's shadow,  

DLR